Location: Godzisko
(49.9648°N, 19.4576°E)
Time: 07:09:36
(UTC+00:00)

Cosmos 990 Rocket - Pass Details

Date: 20 April 2021
Orbit: 746 x 769 km, 74.0° (Epoch: 05 May)

Event Time Altitude Azimuth Distance (km) Brightness Sun altitude
Exits shadow 01:51:51 26° 232° (SW) 1,475 4.9 -15.7°
Maximum altitude 01:54:39 54° 299° (WNW) 919 4.3 -15.4°
Drops below altitude 10° 01:59:48 10° 17° (NNE) 2,310 7.4 -14.7°
Sets 02:02:15 0° 22° (NNE) 3,243 8.4 -14.4°
